Location: Arbon
(43.0005°N, 0.7472°E)
Time: 12:09:10
(UTC+00:00)

Cosmos 1025 Rocket - Pass Details

Date: 22 April 2026
Orbit: 586 x 609 km, 82.5° (Epoch: 16 May)

Event Time Altitude Azimuth Distance (km) Brightness Sun altitude
Rises 19:27:16 0° 4° (N) 2,833 6.8 -7.6°
Reaches altitude 10° 19:29:49 10° 18° (NNE) 1,930 5.7 -8.0°
Maximum altitude 19:33:19 24° 73° (ENE) 1,234 4.2 -8.6°
Enters shadow 19:36:29 12° 126° (SE) 1,822 4.8 -9.1°
